Location: A�t �Alizem
(31.2076°N, 8.7872°W)
Time: 04:44:51
(UTC+00:00)

deb Explorer IX - Pass Details

Date: 24 June 2021
Orbit: 541 x 1234 km, 38.9° (Epoch: 01 August)

Event Time Altitude Azimuth Distance (km) Brightness Sun altitude
Exits shadow 00:29:40 19° 54° (NE) 1,807 ? -35.3°
Drops below altitude 10° 00:31:23 10° 60° (ENE) 2,418 ? -35.4°
Sets 00:34:16 0° 66° (ENE) 3,481 ? -35.4°
